WetterOnline ( http://www.wetteronline.de )

Wetter aktuell Pforzheim

Aktuelles Wetter: Mühlacker (245m)

6-stündlich | Neueste Meldungen
Ortszeit Temperatur Wetter
Mo, 15.10. 8:00 5.1° C wolkig
Mo, 15.10. 2:00 6.4° C wolkenlos
So, 14.10. 20:00 13.4° C wolkenlos
So, 14.10. 14:00 24.7° C wolkenlos
So, 14.10. 8:00 6.0° C wolkenlos
So, 14.10. 2:00 8.2° C wolkenlos
Sa, 13.10. 20:00 14.4° C wolkenlos
Sa, 13.10. 14:00 24.6° C wolkenlos
Ortszeit Temperatur Wetter
Mo, 15.10. 11:00 15.6° C wolkig
Mo, 15.10. 10:30 14.0° C wolkenlos
Mo, 15.10. 10:20 14.0° C wolkenlos
Mo, 15.10. 10:10 12.8° C wolkenlos
Mo, 15.10. 10:00 10.6° C wolkenlos
Mo, 15.10. 9:50 10.6° C wolkenlos
Mo, 15.10. 9:30 7.9° C wolkenlos
Mo, 15.10. 9:00 6.3° C wolkenlos
Mo, 15.10. 8:30 5.3° C leicht bewölkt
Mo, 15.10. 8:00 5.1° C wolkig
Mo, 15.10. 7:30 5.3° C bedeckt
Ortszeit Relative Feuchte Sichtweite
Mo, 15.10. 8:00 92% 14 km
Mo, 15.10. 2:00 86% 23 km
So, 14.10. 20:00 58% 55 km
So, 14.10. 14:00 41% 35 km
So, 14.10. 8:00 98% 4.3 km
So, 14.10. 2:00 92% 12 km
Sa, 13.10. 20:00 63% 40 km
Sa, 13.10. 14:00 42% 35 km
Ortszeit Relative Feuchte Sichtweite
Mo, 15.10. 11:00 61% 23 km
Mo, 15.10. 10:30 64% 21 km
Mo, 15.10. 10:20 64% -
Mo, 15.10. 10:10 68% -
Mo, 15.10. 10:00 76% 18 km
Mo, 15.10. 9:50 76% -
Mo, 15.10. 9:30 87% 19 km
Mo, 15.10. 9:00 93% 17 km
Mo, 15.10. 8:30 95% 13 km
Mo, 15.10. 8:00 92% 14 km
Mo, 15.10. 7:30 95% 15 km
Ortszeit Niederschlagsmenge Niederschlagsart
Mo, 15.10. 8:00 0.0 l/m2 in 12 Std. -
Mo, 15.10. 2:00 0.0 l/m2 in 6 Std. -
So, 14.10. 20:00 0.0 l/m2 in 12 Std. -
So, 14.10. 14:00 0.0 l/m2 in 6 Std. -
So, 14.10. 8:00 0.0 l/m2 in 12 Std. -
So, 14.10. 2:00 0.0 l/m2 in 6 Std. -
Sa, 13.10. 20:00 0.0 l/m2 in 12 Std. -
Sa, 13.10. 14:00 0.0 l/m2 in 6 Std. -
Ortszeit Niederschlagsmenge Niederschlagsart
Mo, 15.10. 11:00 keine Meldung -
Mo, 15.10. 10:30 0.0 l/m2 in 1 Std. -
Mo, 15.10. 10:20 keine Meldung -
Mo, 15.10. 10:10 keine Meldung -
Mo, 15.10. 10:00 0.0 l/m2 in 1 Std. -
Mo, 15.10. 9:50 keine Meldung -
Mo, 15.10. 9:30 0.0 l/m2 in 1 Std. -
Mo, 15.10. 9:00 0.0 l/m2 in 1 Std. -
Mo, 15.10. 8:30 0.0 l/m2 in 1 Std. -
Mo, 15.10. 8:00 0.0 l/m2 in 1 Std. -
Mo, 15.10. 7:30 0.0 l/m2 in 1 Std. -
Ortszeit Stärke Spitze Richtung
km/h Bft. km/h Grad Sektor
Mo, 15.10. 8:00 4 1 7 70° O
Mo, 15.10. 2:00 2 1 6 270° W
So, 14.10. 20:00 0 0 25 - -
So, 14.10. 14:00 11 2 29 120° SO
So, 14.10. 8:00 0 0 7 - -
So, 14.10. 2:00 4 1 7 290° W
Sa, 13.10. 20:00 2 1 20 130° SO
Sa, 13.10. 14:00 13 3 20 110° O
Ortszeit Stärke Spitze Richtung
km/h Bft. km/h Grad Sektor
Mo, 15.10. 11:00 4 1 7 210° SW
Mo, 15.10. 10:30 0 0 4 - -
Mo, 15.10. 10:20 0 0 - 130° SO
Mo, 15.10. 10:10 0 0 - 220° SW
Mo, 15.10. 10:00 0 0 4 - -
Mo, 15.10. 9:50 0 0 - 270° W
Mo, 15.10. 9:30 0 0 4 - -
Mo, 15.10. 9:00 0 0 4 - -
Mo, 15.10. 8:30 0 0 4 - -
Mo, 15.10. 8:00 4 1 4 70° O
Mo, 15.10. 7:30 2 1 4 250° W
Ortszeit Untergrenze Bedeckung Gattung
total tief tief mittel hoch
Mo, 15.10. 8:00 3600 m 5/8 5/8 - - -
Mo, 15.10. 2:00 - 0/8 0/8 - - -
So, 14.10. 20:00 - 0/8 0/8 - - -
So, 14.10. 14:00 - 0/8 0/8 - - -
So, 14.10. 8:00 - 0/8 0/8 - - -
So, 14.10. 2:00 - 0/8 0/8 - - -
Sa, 13.10. 20:00 - 0/8 0/8 - - -
Sa, 13.10. 14:00 - 0/8 0/8 - - -
Ortszeit Bedeckungsgrad in Achtel und Wolkenuntergrenze
Mo, 15.10. 11:00 3(5700m) 7(6300m)
Mo, 15.10. 10:30 keine Wolken
Mo, 15.10. 10:20 keine Wolken
Mo, 15.10. 10:10 keine Wolken
Mo, 15.10. 10:00 keine Wolken
Mo, 15.10. 9:50 keine Wolken
Mo, 15.10. 9:30 keine Wolken
Mo, 15.10. 9:00 keine Wolken
Mo, 15.10. 8:30 2(3600m)
Mo, 15.10. 8:00 5(3600m)
Mo, 15.10. 7:30 8(3600m)
Ortszeit Luftdruck NN (hPa) Tendenz (hPa in 3 Std.)
Mo, 15.10. 8:00 1015 + 1,0
Mo, 15.10. 2:00 1014 + 0,6
So, 14.10. 20:00 1012 + 0,3
So, 14.10. 14:00 1011 - 2,0
So, 14.10. 8:00 1016 - 0,7
So, 14.10. 2:00 1017 - 0,9
Sa, 13.10. 20:00 1018 - 0,5
Sa, 13.10. 14:00 1020 - 2,4
Ortszeit Luftdruck NN (hPa) Tendenz (hPa in 3 Std.)
Mo, 15.10. 11:00 1015 + 0,7
Mo, 15.10. 10:30 1015 + 1,0
Mo, 15.10. 10:20 1015 keine Meldung
Mo, 15.10. 10:10 1015 keine Meldung
Mo, 15.10. 10:00 1015 + 1,3
Mo, 15.10. 9:50 1015 keine Meldung
Mo, 15.10. 9:30 1015 + 1,3
Mo, 15.10. 9:00 1015 + 1,3
Mo, 15.10. 8:30 1015 + 1,1
Mo, 15.10. 8:00 1015 + 1,0
Mo, 15.10. 7:30 1015 + 0,8
Ortszeit Schneehöhe (cm)
Mo, 15.10. 8:00 0
Mo, 15.10. 2:00 0
So, 14.10. 20:00 0
So, 14.10. 14:00 0
So, 14.10. 8:00 0
So, 14.10. 2:00 0
Sa, 13.10. 20:00 0
Sa, 13.10. 14:00 0
Ortszeit Schneehöhe (cm)
Mo, 15.10. 11:00 -
Mo, 15.10. 10:30 0
Mo, 15.10. 10:20 0
Mo, 15.10. 10:10 0
Mo, 15.10. 10:00 0
Mo, 15.10. 9:50 0
Mo, 15.10. 9:30 0
Mo, 15.10. 9:00 0
Mo, 15.10. 8:30 0
Mo, 15.10. 8:00 0
Mo, 15.10. 7:30 0
Link zu dieser Seite / Seite empfehlen

Das Wetter in ...